EHI
0 0 0 0 0 0 0 0 0 0 0 0 1 2 2 3 3 3 3 4 4 4 4 4 4 2 1 0 1 0 0 0 0 0 0 0 0 0 0 0 0 0 0
0 0 0 0 0 0 0 0 0 0 0 0 0 1 1 1 1 1 2 2 3 3 4 3 3 1 0 0 1 0 0 0 0 0 0 0 0 0 0 0 0 0 0
0 0 0 0 1 1 1 0 0 0 0 0 0 0 0 0 0 0 0 0 1 2 2 2 1 0 0 0 0 0 0 0 0 0 0 0 0 0 0 0 0 0 0
0 0 0 1 2 2 1 1 1 1 1 1 1 0 0 0 0 0 0 0 0 1 1 1 0 0 0 0 0 0 0 1 1 0 0 0 0 0 0 0 0 0 0
0 0 1 2 3 2 1 1 2 2 2 2 1 0 0 0 0 0 0 0 0 0 0 0 0 0 0 0 0 0 2 3 2 1 0 0 0 0 0 0 0 0 0
0 0 2 4 4 2 1 1 1 1 1 1 1 0 0 0 0 0 0 0 0 0 0 0 0 0 0 0 0 1 3 4 3 1 0 0 0 0 0 0 0 0 0
0 0 3 8 8 5 2 0 0 0 0 0 0 0 0 0 0 0 0 0 0 0 0 0 0 0 0 0 0 1 3 3 1 0 0 0 0 0 0 0 0 0 0
0 0 3 9 12 9 4 1 0 0 0 0 0 0 0 0 0 0 0 0 0 0 0 0 0 0 0 0 0 1 2 2 1 0 0 0 0 0 0 0 0 0 0
1 0 1 4 7 9 6 2 1 0 0 0 0 0 0 0 0 0 0 0 0 0 0 0 0 0 0 0 0 0 1 1 0 0 0 0 0 0 0 0 0 0 0
1 0 0 1 2 4 4 2 1 0 0 0 0 0 0 0 0 0 0 0 0 0 0 0 0 0 0 0 0 0 0 0 0 0 0 0 1 0 0 0 0 0 0
1 0 1 2 2 1 1 1 1 0 0 0 0 1 1 0 0 0 0 0 0 0 0 0 0 0 0 0 0 0 0 0 0 0 0 0 0 0 0 0 0 0 0
0 0 1 2 2 1 0 0 0 0 0 0 1 2 1 0 0 0 0 0 0 0 0 0 0 0 0 0 0 0 0 0 0 0 0 1 1 0 0 0 0 0 0
0 0 0 1 1 0 0 0 0 0 0 0 1 2 1 0 0 0 0 0 0 0 0 0 0 0 0 0 0 0 0 0 0 0 1 2 3 1 0 0 0 0 0
0 0 0 0 0 0 0 0 0 1 1 1 1 1 0 0 0 0 0 0 0 0 0 0 0 0 0 0 0 0 0 0 0 0 1 3 5 3 0 0 0 0 0
0 0 0 1 0 0 0 0 0 0 1 1 0 0 0 0 0 0 0 0 0 0 1 0 0 0 0 0 0 0 0 0 0 0 0 2 4 3 1 0 0 0 0
0 0 0 0 0 0 0 0 0 0 0 0 0 0 0 0 0 0 0 0 0 0 0 0 0 0 0 0 0 0 0 0 0 0 0 1 2 1 0 0 0 0 0
0 0 0 0 0 0 0 0 0 0 0 0 0 0 0 0 0 0 0 0 0 0 0 0 0 0 0 0 0 0 0 0 0 0 0 0 0 0 0 0 0 0 0
0 0 0 0 0 0 0 0 0 0 0 0 0 0 0 0 0 0 0 0 0 0 0 0 0 0 0 0 0 0 0 0 0 0 0 0 0 0 0 0 0 0 0
0 0 0 0 0 0 0 0 0 0 0 0 0 0 0 0 0 0 0 0 0 0 0 0 0 0 0 0 0 0 0 0 0 0 0 0 0 0 0 0 0 0 0
0 0 0 0 0 0 0 0 0 0 0 0 0 0 0 0 0 0 0 0 0 0 0 0 0 0 0 0 0 0 0 0 0 0 0 0 0 0 0 0 0 0 0
0 0 0 0 0 0 0 0 0 0 0 0 0 0 0 0 0 0 0 0 0 0 0 0 0 0 0 0 0 0 0 0 0 0 0 0 0 0 0 0 0 0 0
0 0 0 0 0 0 0 0 0 0 0 0 0 0 0 0 0 0 0 0 0 0 0 0 0 0 0 0 0 0 0 0 0 0 0 0 0 0 0 0 0 0 0
0 0 0 0 0 0 0 0 0 0 0 0 0 0 0 0 0 0 0 0 0 0 0 0 0 0 0 0 0 0 0 0 0 0 0 0 0 0 0 0 0 0 0
0 0 0 0 0 0 0 0 0 0 0 0 0 0 0 0 0 0 0 0 0 0 0 0 0 0 0 0 0 0 0 0 0 0 0 0 0 0 0 0 0 0 0
0 0 0 0 0 0 0 0 0 0 0 0 0 0 0 0 0 0 0 1 1 0 0 0 0 0 0 0 0 0 0 0 0 0 0 0 0 0 0 0 0 0 0
0 0 0 0 0 0 0 0 0 0 0 0 0 0 0 0 0 0 1 2 2 1 0 0 0 0 0 0 0 0 0 0 0 0 0 0 0 0 0 0 0 0 0
Wind_Speed
4 5 10 11 12 12 12 11 11 10 10 9 9 9 9 9 9 9 9 8 8 8 8 8 8 8 8 7 7 7 8 8 8 8 9 9 9 9 9 9 8 6 10
8 7 11 11 12 12 11 11 11 10 9 9 8 8 8 8 8 8 8 8 8 7 7 7 7 7 6 6 6 6 7 6 6 6 8 8 9 9 9 9 8 6 9
10 8 9 11 12 12 11 11 10 10 9 8 8 8 8 8 8 7 7 7 7 7 7 6 6 6 5 5 5 5 6 6 6 5 6 3 5 8 8 8 8 9 8
11 8 8 12 12 11 11 10 10 9 9 8 8 7 7 7 7 7 7 7 7 6 6 6 6 6 5 4 4 4 5 6 7 6 3 2 3 7 8 8 8 8 8
10 8 9 12 12 11 10 10 9 9 8 8 8 7 7 7 7 7 7 7 7 6 6 6 5 5 5 3 2 3 4 5 7 6 4 4 3 6 7 7 7 7 8
10 9 9 13 12 11 11 10 9 9 8 8 7 7 7 7 7 7 6 6 6 6 6 5 5 5 4 3 1 2 4 5 5 3 3 3 2 6 7 7 7 7 7
10 9 10 14 13 12 11 10 10 9 8 8 7 7 7 7 7 7 7 7 6 6 6 5 5 5 4 3 1 1 3 4 3 3 3 3 3 7 7 7 7 7 7
9 8 8 13 13 12 11 11 10 9 9 9 8 8 7 7 7 7 7 7 7 7 6 6 5 5 4 3 2 2 2 3 3 3 3 2 5 7 7 7 7 6 7
6 4 2 4 8 12 12 12 11 10 10 10 9 9 8 8 8 8 8 8 8 7 7 7 6 6 5 5 4 3 2 2 2 2 4 3 6 7 7 7 6 6 6
6 4 2 0 1 3 5 11 12 12 12 11 11 11 10 9 9 9 9 9 9 9 8 8 7 7 6 6 6 5 3 1 2 2 2 4 7 7 7 7 6 6 6
6 5 3 3 2 2 3 8 9 11 11 11 10 12 10 5 5 6 9 11 11 11 10 10 9 8 8 7 8 7 3 1 1 2 3 6 9 8 8 7 6 6 6
5 4 3 3 2 2 3 3 3 4 5 5 5 6 5 5 5 7 8 14 14 13 12 11 11 9 7 3 5 6 1 2 2 3 3 8 10 9 8 8 7 6 6
3 4 4 2 2 2 2 1 1 2 2 4 5 6 4 4 4 5 4 7 8 10 6 7 7 4 4 3 3 3 3 2 2 3 4 10 10 10 9 8 8 7 7
4 4 3 3 3 3 2 2 1 1 2 3 4 5 4 3 4 4 4 5 5 4 5 4 3 5 5 5 5 4 4 3 3 3 5 11 11 11 10 9 9 8 8
5 5 4 3 2 3 2 2 2 2 2 3 3 4 5 4 5 5 4 4 5 4 5 5 5 5 6 6 6 6 6 5 5 5 4 11 11 11 11 10 10 9 8
6 6 5 4 3 3 2 2 2 3 3 3 4 4 5 4 5 5 5 5 5 5 6 6 6 6 6 5 6 7 7 6 6 6 5 7 11 10 11 11 11 10 9
6 6 6 5 4 4 4 4 3 3 3 3 4 5 5 5 6 5 5 5 5 5 6 5 6 5 5 4 6 6 5 6 8 7 6 5 5 9 10 11 11 11 10
6 7 7 7 5 5 4 4 3 3 3 3 3 4 5 6 5 4 4 4 4 4 4 5 4 4 5 4 4 4 4 5 8 8 6 5 5 5 7 10 11 11 11
6 7 7 7 6 5 5 4 4 4 3 3 3 3 4 4 4 3 4 4 4 4 4 5 4 3 4 4 4 3 3 4 6 8 7 7 6 5 5 8 11 11 11
7 7 7 7 7 6 4 3 3 3 3 3 3 3 4 4 4 4 4 4 4 4 3 3 3 3 3 3 3 2 2 3 4 6 7 7 6 6 6 6 6 8 11
8 8 7 7 7 5 3 3 3 3 4 3 3 4 4 4 4 4 4 4 4 4 5 5 3 3 3 2 2 0 1 0 2 4 4 5 7 7 6 6 5 4 5
7 8 7 7 7 6 4 4 3 4 3 3 3 3 4 4 4 4 4 4 5 4 5 5 4 3 2 3 3 3 0 2 1 2 3 4 6 5 6 7 5 5 4
7 8 8 8 7 7 7 4 4 3 3 2 3 3 3 4 4 4 4 4 5 5 5 6 6 6 4 2 2 4 4 4 2 1 2 3 4 4 5 5 6 6 6
7 8 7 7 7 7 6 5 4 3 3 3 3 3 4 4 4 4 4 4 5 5 5 6 6 5 5 4 3 2 2 4 4 2 1 1 3 4 5 5 6 6 6
7 7 7 7 7 7 7 5 4 4 3 3 3 4 4 4 4 4 4 4 4 4 5 6 5 6 5 5 4 3 2 1 2 3 2 1 1 2 3 4 3 4 6
6 6 7 7 7 7 7 6 5 5 5 5 5 4 4 3 3 4 3 3 4 4 5 6 5 6 5 5 4 4 4 3 3 3 3 2 2 2 2 2 3 3 4
Wind_Direction
160 171 152 146 145 144 142 140 138 136 132 127 123 119 115 110 107 104 102 100 97 93 90 87 87 84 80 74 69 67 67 68 70 70 70 72 72 72 81 87 89 90 95
155 160 150 145 143 144 144 144 145 143 140 136 132 129 126 122 117 114 111 107 105 102 99 97 97 93 86 77 70 64 61 59 65 73 74 72 74 74 80 90 93 100 101
145 150 148 146 143 144 145 146 147 146 145 142 140 138 136 131 127 125 122 119 115 112 110 108 108 105 97 83 69 58 50 43 46 79 94 76 73 77 83 92 97 100 104
144 149 150 149 146 145 146 146 148 148 148 147 146 145 143 139 136 134 132 129 126 122 119 116 114 113 107 93 70 51 41 37 50 84 96 79 76 83 85 92 96 100 103
147 149 153 152 151 150 149 150 150 151 151 153 153 151 149 147 146 144 141 138 136 134 130 125 122 121 118 107 77 43 32 37 62 89 96 86 77 92 91 90 93 101 106
150 153 159 158 158 157 156 156 157 158 160 162 163 163 162 160 159 158 156 152 147 144 143 141 139 136 135 131 94 33 20 34 65 100 113 107 97 98 95 93 95 100 107
155 161 166 165 166 166 166 167 168 170 171 174 175 176 174 173 173 172 171 167 163 159 154 155 158 156 160 169 189 348 8 20 85 120 128 121 117 107 101 98 99 102 109
153 159 170 173 173 175 177 179 181 183 185 187 189 189 187 188 186 184 183 180 177 173 171 172 176 180 185 198 226 271 351 18 87 129 144 148 132 115 108 103 101 101 107
108 122 161 187 185 186 185 187 191 194 196 198 199 198 199 200 199 196 194 191 187 185 186 188 192 197 203 218 237 258 297 33 99 156 160 162 144 127 119 111 104 101 108
65 63 55 6 230 223 207 202 200 202 204 206 206 205 206 207 208 207 204 201 199 197 198 200 203 208 216 227 241 253 272 37 115 173 162 171 156 140 131 121 114 110 110
47 38 29 17 2 285 248 227 214 211 213 213 214 213 209 208 211 215 214 209 209 208 207 208 211 217 224 236 246 253 262 145 155 179 174 178 164 153 144 135 128 120 117
27 20 24 19 351 306 262 250 230 222 223 220 216 217 208 201 210 218 224 221 217 214 213 215 218 224 230 241 259 263 237 176 179 191 195 184 171 162 155 150 143 136 133
26 18 8 351 333 317 300 287 245 230 230 231 225 221 218 212 216 224 220 228 224 219 215 220 223 223 225 229 240 244 228 201 194 196 197 188 178 171 166 162 157 152 149
15 8 354 345 341 332 333 315 274 239 234 237 237 230 219 217 220 220 217 215 210 206 203 210 213 222 230 235 237 239 231 214 196 189 195 190 182 177 174 171 167 163 160
8 355 342 337 344 333 328 309 292 257 248 251 250 238 219 218 224 219 216 213 206 202 204 208 214 221 229 237 238 234 222 211 195 190 191 191 184 181 180 178 174 171 169
355 345 338 330 323 318 307 288 277 267 263 255 250 238 221 220 225 214 211 212 210 206 208 209 212 218 225 226 233 229 218 199 188 188 187 189 188 184 183 183 181 179 178
351 345 339 332 339 322 308 292 285 269 261 256 253 244 229 220 218 212 208 207 210 207 206 210 217 218 226 224 229 224 210 190 179 184 186 183 185 189 187 189 187 186 186
357 348 338 342 338 323 314 302 294 285 277 264 262 252 241 234 224 215 211 210 205 197 200 204 206 205 222 220 215 209 192 178 178 182 184 183 182 186 193 195 190 189 190
356 346 338 334 328 318 313 306 299 294 288 277 271 263 256 247 235 220 218 214 198 189 194 207 201 195 207 211 211 201 180 176 180 183 185 187 188 187 187 196 192 192 195
351 346 341 336 332 321 312 311 308 302 292 284 273 265 264 255 248 232 225 220 203 192 191 199 197 196 194 191 195 188 182 189 183 184 188 188 192 194 190 192 191 199 200
348 344 339 338 333 330 321 312 305 298 292 291 283 272 267 258 251 240 237 223 211 202 200 194 189 195 197 164 128 88 342 263 190 187 192 188 193 195 189 191 192 192 203
341 339 340 340 332 330 318 296 269 269 270 271 284 292 278 270 262 251 236 224 211 207 205 198 185 181 192 167 145 132 137 335 306 213 185 185 189 185 190 196 194 195 198
341 339 338 331 330 328 328 321 314 308 305 311 309 302 292 283 269 257 244 230 217 205 207 203 194 182 186 192 172 154 158 200 223 279 205 180 172 171 186 190 197 201 201
333 335 333 331 331 330 334 338 333 324 308 291 292 289 295 292 278 260 248 235 225 213 210 210 200 189 176 188 198 202 170 157 156 185 285 199 166 167 179 187 196 200 197
333 336 338 338 336 334 338 339 334 328 308 306 313 315 311 301 287 274 255 239 231 222 213 206 198 191 186 188 182 173 170 157 143 147 180 197 175 180 183 183 181 190 193
336 338 341 343 342 344 347 347 348 343 337 340 338 331 323 312 302 293 273 250 236 227 219 210 201 197 197 194 189 179 170 169 177 163 166 180 189 202 185 182 182 186 188